Location: Seattle
(47.6064°N, 122.3308°W)
Time: 20:07:13
(UTC-07:00)

deb Explorer IX - Visible Passes

Search period start: 18 May 2021 00:00
Search period end: 28 May 2021 00:00
Orbit: 540 x 1099 km, 38.8° (Epoch: 18 May)

Date Brightness Start Highest point End Pass type
(mag) Time Alt. Az. Time Alt. Az. Time Alt. Az.
18 May ? 21:37:56 10° WSW 21:44:24 38° S 21:50:17 10° ESE visible
18 May ? 23:24:52 10° WSW 23:30:54 34° SSW 23:31:54 33° S visible
19 May ? 01:12:54 10° WSW 01:13:08 11° WSW 01:13:08 11° WSW visible
19 May ? 21:13:56 10° WSW 21:20:30 39° S 21:26:32 10° ESE visible
19 May ? 23:00:51 10° WSW 23:07:02 35° SSW 23:09:10 28° SSE visible
20 May ? 00:48:51 10° WSW 00:50:24 14° WSW 00:50:24 14° WSW visible
20 May ? 22:36:50 10° WSW 22:43:08 36° SSW 22:46:23 23° SE visible
21 May ? 00:24:47 10° WSW 00:27:37 17° SW 00:27:37 17° SW visible
21 May ? 22:12:50 10° WSW 22:19:15 36° SSW 22:23:35 17° SE visible
22 May ? 00:00:45 10° WSW 00:04:49 19° SW 00:04:49 19° SW visible
22 May ? 21:48:50 10° WSW 21:55:20 37° SSW 22:00:47 12° SE visible
22 May ? 23:36:42 10° WSW 23:41:29 20° SSW 23:42:00 20° SSW visible
23 May ? 21:24:51 10° WSW 21:31:25 37° SSW 21:37:33 10° SE visible
23 May ? 23:12:39 10° WSW 23:17:36 21° SSW 23:19:12 19° SSW visible
24 May ? 22:48:38 10° WSW 22:53:42 21° SSW 22:56:24 17° S visible
25 May ? 22:24:37 10° WSW 22:29:47 22° SSW 22:33:36 14° S visible
26 May ? 22:00:37 10° WSW 22:05:53 22° SSW 22:10:51 10° SSE visible
27 May ? 21:36:38 10° WSW 21:41:57 22° SSW 21:47:06 10° SSE visible
